This is the latest recevied weather packets stored in our database for station/object W4MSI. If no packets are shown the sender has not sent any weather packets the latest 10 day(s).
| Time | Temp. | Humidity | Pressure | Rain* | Wind** | Luminosity | Snow |
|---|---|---|---|---|---|---|---|
| 1778002659 | 18.33° C | 80% | 1009.5 hPa | 0 mm | - | 344 W/m² | - |
| 1778002356 | 17.78° C | 79% | 1009.5 hPa | 0 mm | - | 341 W/m² | - |
| 1778002053 | 17.78° C | 80% | 1009.6 hPa | 0 mm | - | 245 W/m² | - |
| 1778001750 | 17.78° C | 81% | 1009.8 hPa | 0 mm | - | 218 W/m² | - |
| 1778001449 | 17.78° C | 82% | 1009.6 hPa | 0 mm | - | 210 W/m² | - |
| 1778001147 | 17.22° C | 84% | 1009.6 hPa | 0 mm | - | 137 W/m² | - |
| 1778000843 | 17.22° C | 84% | 1009.5 hPa | 0 mm | - | 115 W/m² | - |
| 1778000540 | 17.78° C | 84% | 1009.7 hPa | 0 mm | - | 115 W/m² | - |
| 1778000236 | 17.22° C | 84% | 1009.5 hPa | 0 mm | - | 178 W/m² | - |
| 1777999932 | 17.78° C | 84% | 1009.6 hPa | 0 mm | - | 198 W/m² | - |
| 1777999627 | 17.78° C | 85% | 1009.9 hPa | 0 mm | - | 188 W/m² | - |
| 1777999325 | 17.22° C | 85% | 1009.7 hPa | 0 mm | - | 265 W/m² | - |
| 1777999023 | 17.22° C | 85% | 1010 hPa | 0 mm | - | 282 W/m² | - |
| 1777998721 | 17.22° C | 84% | 1010 hPa | 0 mm | - | 246 W/m² | - |
| 1777998418 | 17.22° C | 83% | 1010.3 hPa | 3.05 mm | - | 240 W/m² | - |
| 1777998115 | 17.22° C | 80% | 1010.5 hPa | 1.78 mm | - | 245 W/m² | - |
| 1777997812 | 17.78° C | 79% | 1010.5 hPa | 1.78 mm | - | 215 W/m² | - |
| 1777997509 | 17.78° C | 74% | 1010.7 hPa | 0 mm | - | 96 W/m² | - |
| 1777997207 | 18.33° C | 73% | 1010.9 hPa | 0 mm | - | 60 W/m² | - |
| 1777996904 | 18.33° C | 72% | 1010.9 hPa | 0 mm | - | 80 W/m² | - |
| 1777996601 | 18.33° C | 72% | 1011.1 hPa | 0 mm | - | 77 W/m² | - |
| 1777996297 | 18.33° C | 71% | 1011.2 hPa | 0 mm | - | 43 W/m² | - |
| 1777995993 | 18.33° C | 71% | 1011.3 hPa | 0 mm | - | 48 W/m² | - |
| 1777995689 | 18.33° C | 71% | 1011 hPa | 0 mm | - | 39 W/m² | - |
| 1777995386 | 18.33° C | 71% | 1010.9 hPa | 0 mm | - | 93 W/m² | - |
* Rain latest hour (hover to see other rain measurements)
** Current wind speed in m/s (hover to see current wind gust speed)